Cambridge, MD

11:30 AM EDT on June 25, 2017 (GMT -0400)
Cambridge-Dorchester

Weather History for KCGE - March, 2014

Change the Weather History Date:

Friday, March 28, 2014

  Actual Average (KESN) Record (KESN)
Temperature  
Mean Temperature 53 °F -  
Max Temperature 64 °F 58 °F 80 °F (1949)
Min Temperature 42 °F 34 °F 24 °F (1966)
Degree Days  
Heating Degree Days 12    
Growing Degree Days 3 (Base 50)    
Moisture  
Dew Point 43 °F    
Average Humidity 65    
Maximum Humidity 82    
Minimum Humidity 52    
Precipitation  
Precipitation 0.00 in - - ()
Sea Level Pressure  
Sea Level Pressure 30.12 in    
Wind  
Wind Speed 11 mph (South)    
Max Wind Speed 15 mph    
Max Gust Speed 22 mph    
Visibility 10 miles    
Events      
Averages and records for this station are not official NWS values.
T = Trace of Precipitation, MM = Missing Value Source: NWS Daily Summary

Daily Weather History Graph

Daily Weather History Graph

Search for Another Location

Airport or City:

Trip Planner

Search our weather history database for the weather conditions in past years. The results will help you decide how hot, cold, wet, or windy it might be!

Date:

Astronomy

Mar. 28, 2014 Rise Set
Actual Time 6:55 AM EDT 7:23 PM EDT
Civil Twilight 6:28 AM EDT 7:50 PM EDT
Nautical Twilight 5:57 AM EDT 8:21 PM EDT
Astronomical Twilight 5:25 AM EDT 8:53 PM EDT
Moon 5:23 AM EDT (3/28) 5:18 PM EDT (3/28)
Length of Visible Light 13h 21m
Length of Day
12h 28m
Waning Crescent, 6% of the Moon is Illuminated
Mar 28
Waning Crescent
Mar 30
New
Apr 7
First Quarter
Apr 15
Full
Apr 22
Last Quarter

Hourly Weather History & Observations

Time (EDT) Temp. Windchill Dew Point Humidity Pressure Visibility Wind Dir Wind Speed Gust Speed Precip Events Conditions
12:19 AM 42.8 °F 35.4 °F 32.0 °F 66% 30.26 in 10.0 mi South 15.0 mph 20.7 mph N/A   Clear
12:39 AM 42.8 °F 36.2 °F 32.0 °F 66% 30.25 in 10.0 mi South 12.7 mph 19.6 mph N/A   Clear
12:59 AM 42.8 °F 36.6 °F 32.0 °F 66% 30.24 in 10.0 mi South 11.5 mph 18.4 mph N/A   Clear
1:19 AM 42.8 °F 37.0 °F 32.0 °F 66% 30.24 in 10.0 mi South 10.4 mph 16.1 mph N/A   Clear
1:39 AM 42.8 °F 37.5 °F 32.0 °F 66% 30.23 in 10.0 mi South 9.2 mph 17.3 mph N/A   Clear
1:59 AM 44.6 °F 38.1 °F 32.0 °F 61% 30.20 in 10.0 mi South 13.8 mph 18.4 mph N/A   Clear
2:19 AM 44.6 °F 38.4 °F 33.8 °F 66% 30.21 in 10.0 mi South 12.7 mph 18.4 mph N/A   Clear
2:39 AM 44.6 °F 38.8 °F 33.8 °F 66% 30.21 in 10.0 mi South 11.5 mph 19.6 mph N/A   Clear
3:00 AM 46.4 °F 40.7 °F 33.8 °F 62% 30.20 in 10.0 mi South 12.7 mph - N/A   Clear
3:20 AM 46.4 °F 40.7 °F 33.8 °F 62% 30.19 in 10.0 mi SSE 12.7 mph 20.7 mph N/A   Clear
3:40 AM 44.6 °F 38.8 °F 33.8 °F 66% 30.18 in 10.0 mi SSE 11.5 mph 17.3 mph N/A   Clear
4:00 AM 44.6 °F 38.4 °F 35.6 °F 71% 30.17 in 10.0 mi South 12.7 mph 20.7 mph N/A   Clear
4:20 AM 44.6 °F 38.1 °F 35.6 °F 71% 30.18 in 10.0 mi South 13.8 mph 19.6 mph N/A   Clear
4:40 AM 44.6 °F 39.2 °F 35.6 °F 71% 30.17 in 10.0 mi South 10.4 mph 18.4 mph N/A   Clear
5:00 AM 44.6 °F 38.8 °F 35.6 °F 71% 30.15 in 10.0 mi South 11.5 mph 16.1 mph N/A   Clear
5:20 AM 44.6 °F 40.2 °F 35.6 °F 71% 30.15 in 10.0 mi South 8.1 mph - N/A   Clear
5:40 AM 46.4 °F 41.1 °F 37.4 °F 71% 30.15 in 10.0 mi South 11.5 mph 17.3 mph N/A   Clear
6:00 AM 48.2 °F - 39.2 °F 71% 30.15 in 10.0 mi South 13.8 mph - N/A   Clear
6:20 AM 46.4 °F 41.5 °F 39.2 °F 76% 30.15 in 10.0 mi South 10.4 mph - N/A   Clear
6:40 AM 46.4 °F 42.4 °F 37.4 °F 71% 30.15 in 10.0 mi South 8.1 mph 16.1 mph N/A   Clear
7:00 AM 46.4 °F 41.9 °F 39.2 °F 76% 30.15 in 10.0 mi South 9.2 mph - N/A   Clear
7:20 AM 46.4 °F 41.1 °F 39.2 °F 76% 30.15 in 10.0 mi South 11.5 mph - N/A   Clear
7:40 AM 46.4 °F 42.9 °F 41.0 °F 81% 30.15 in 10.0 mi South 6.9 mph - N/A   Clear
8:00 AM 48.2 °F - 42.8 °F 82% 30.16 in 10.0 mi South 10.4 mph - N/A   Clear
8:20 AM 51.8 °F - 42.8 °F 71% 30.16 in 10.0 mi South 8.1 mph - N/A   Clear
8:40 AM 51.8 °F - 42.8 °F 71% 30.16 in 10.0 mi South 5.8 mph - N/A   Clear
9:00 AM 51.8 °F - 42.8 °F 71% 30.16 in 10.0 mi South 8.1 mph - N/A   Clear
9:20 AM 51.8 °F - 42.8 °F 71% 30.16 in 10.0 mi South 9.2 mph - N/A   Scattered Clouds
9:40 AM 51.8 °F - 42.8 °F 71% 30.15 in 10.0 mi South 8.1 mph - N/A   Scattered Clouds
10:00 AM 53.6 °F - 44.6 °F 72% 30.15 in 10.0 mi South 10.4 mph 17.3 mph N/A   Clear
10:20 AM 53.6 °F - 44.6 °F 72% 30.15 in 10.0 mi South 10.4 mph 18.4 mph N/A   Clear
10:40 AM 55.4 °F - 44.6 °F 67% 30.15 in 10.0 mi South 9.2 mph 16.1 mph N/A   Clear
11:00 AM 55.4 °F - 44.6 °F 67% 30.15 in 10.0 mi South 12.7 mph 17.3 mph N/A   Clear
11:21 AM 55.4 °F - 44.6 °F 67% 30.15 in 10.0 mi SSW 9.2 mph 19.6 mph N/A   Clear
11:41 AM 55.4 °F - 44.6 °F 67% 30.14 in 10.0 mi South 9.2 mph 17.3 mph N/A   Clear
12:01 PM 57.2 °F - 44.6 °F 63% 30.13 in 10.0 mi South 9.2 mph 18.4 mph N/A   Scattered Clouds
12:21 PM 59.0 °F - 44.6 °F 59% 30.13 in 10.0 mi South 10.4 mph 16.1 mph N/A   Scattered Clouds
12:41 PM 59.0 °F - 46.4 °F 63% 30.12 in 10.0 mi South 11.5 mph 17.3 mph N/A   Scattered Clouds
1:01 PM 59.0 °F - 46.4 °F 63% 30.11 in 10.0 mi South 10.4 mph 17.3 mph N/A   Scattered Clouds
1:21 PM 59.0 °F - 46.4 °F 63% 30.10 in 10.0 mi South 11.5 mph - N/A   Scattered Clouds
1:41 PM 59.0 °F - 44.6 °F 59% 30.08 in 10.0 mi South 10.4 mph - N/A   Scattered Clouds
2:01 PM 60.8 °F - 46.4 °F 59% 30.06 in 10.0 mi South 12.7 mph - N/A   Clear
2:21 PM 60.8 °F - 46.4 °F 59% 30.05 in 10.0 mi South 12.7 mph 19.6 mph N/A   Clear
2:41 PM 60.8 °F - 46.4 °F 59% 30.05 in 10.0 mi South 13.8 mph 18.4 mph N/A   Clear
3:01 PM 60.8 °F - 46.4 °F 59% 30.05 in 10.0 mi South 11.5 mph 18.4 mph N/A   Clear
3:21 PM 62.6 °F - 46.4 °F 55% 30.05 in 10.0 mi South 10.4 mph 17.3 mph N/A   Clear
3:41 PM 64.4 °F - 46.4 °F 52% 30.05 in 10.0 mi SSW 8.1 mph 21.9 mph N/A   Clear
4:01 PM 64.4 °F - 46.4 °F 52% 30.04 in 10.0 mi SSW 4.6 mph - N/A   Clear
4:21 PM 64.4 °F - 46.4 °F 52% 30.04 in 10.0 mi South 11.5 mph 16.1 mph N/A   Clear
4:41 PM 64.4 °F - 46.4 °F 52% 30.04 in 10.0 mi SSW 9.2 mph 17.3 mph N/A   Clear
5:01 PM 64.4 °F - 46.4 °F 52% 30.03 in 10.0 mi South 9.2 mph 18.4 mph N/A   Clear
5:21 PM 64.4 °F - 46.4 °F 52% 30.04 in 10.0 mi SSW 5.8 mph 18.4 mph N/A   Clear
5:41 PM 64.4 °F - 46.4 °F 52% 30.04 in 10.0 mi South 8.1 mph - N/A   Clear
6:01 PM 64.4 °F - 46.4 °F 52% 30.06 in 10.0 mi SSW 6.9 mph - N/A   Scattered Clouds
6:21 PM 62.6 °F - 48.2 °F 59% 30.07 in 10.0 mi SSW 8.1 mph - N/A   Mostly Cloudy
6:41 PM 64.4 °F - 48.2 °F 56% 30.07 in 10.0 mi SSW 6.9 mph - N/A   Mostly Cloudy
7:01 PM 62.6 °F - 48.2 °F 59% 30.07 in 10.0 mi South 8.1 mph - N/A   Mostly Cloudy
7:21 PM 62.6 °F - 48.2 °F 59% 30.07 in 10.0 mi South 8.1 mph - N/A   Mostly Cloudy
7:41 PM 62.6 °F - 48.2 °F 59% 30.07 in 10.0 mi South 8.1 mph - N/A   Overcast
8:02 PM 62.6 °F - 48.2 °F 59% 30.07 in 10.0 mi SSW 6.9 mph - N/A   Overcast
8:22 PM 62.6 °F - 48.2 °F 59% 30.08 in 10.0 mi South 8.1 mph - N/A   Overcast
8:42 PM 62.6 °F - 48.2 °F 59% 30.08 in 10.0 mi South 8.1 mph - N/A   Mostly Cloudy
9:02 PM 60.8 °F - 48.2 °F 63% 30.09 in 10.0 mi South 9.2 mph - N/A   Mostly Cloudy
9:22 PM 59.0 °F - 48.2 °F 67% 30.09 in 10.0 mi SSE 10.4 mph - N/A   Scattered Clouds
9:42 PM 55.4 °F - 46.4 °F 72% 30.09 in 10.0 mi SSE 8.1 mph - N/A   Scattered Clouds
10:02 PM 59.0 °F - 48.2 °F 67% 30.09 in 10.0 mi South 6.9 mph - N/A   Overcast
10:22 PM 60.8 °F - 50.0 °F 68% 30.09 in 10.0 mi South 8.1 mph - N/A   Mostly Cloudy
10:42 PM 60.8 °F - 50.0 °F 68% 30.09 in 10.0 mi South 8.1 mph - N/A   Mostly Cloudy
11:02 PM 60.8 °F - 50.0 °F 68% 30.10 in 10.0 mi South 8.1 mph - N/A   Mostly Cloudy
11:22 PM 62.6 °F - 50.0 °F 63% 30.10 in 10.0 mi South 8.1 mph - N/A   Mostly Cloudy
11:42 PM 60.8 °F - 50.0 °F 68% 30.10 in 10.0 mi South 5.8 mph - N/A   Scattered Clouds